Temperature
20 21 20 21 20 20 20 20 20 20 20 20 20 20 19 19 19 19 19 19 19 19 19 19 18 18 18 18 18 18 18 18 18 18 18 17 17 17 17 17 17 17 17
21 21 21 21 20 20 20 20 20 20 20 20 20 19 19 19 19 19 19 19 19 19 18 19 18 18 18 18 18 18 18 18 18 18 18 17 17 17 17 18 17 17 17
22 21 21 21 20 20 20 20 20 20 19 19 19 19 19 19 19 19 19 19 19 18 18 19 18 18 18 18 18 18 18 18 18 18 18 17 17 17 17 17 17 17 17
22 21 21 21 20 20 20 20 20 19 19 19 19 19 19 19 19 19 19 19 18 18 18 18 18 18 18 18 18 18 17 18 18 17 18 18 17 17 17 17 17 17 17
22 21 21 21 20 20 20 20 20 19 19 19 19 19 19 19 19 19 18 18 18 18 18 18 18 18 18 18 17 17 17 17 17 18 18 18 17 17 17 17 17 17 17
22 21 21 21 20 20 20 20 19 19 19 19 19 19 19 19 19 18 18 18 18 18 18 18 18 18 18 17 17 17 17 17 17 17 18 18 18 17 17 17 17 17 17
22 21 21 21 20 20 20 20 19 19 19 19 19 19 18 18 18 18 18 18 18 18 18 18 18 18 18 17 17 17 17 17 17 17 17 18 18 17 17 17 17 17 17
22 21 21 21 20 20 20 20 19 19 19 19 19 18 18 18 18 18 18 18 18 18 18 18 18 18 17 17 17 17 17 17 17 17 18 18 18 17 17 17 17 17 17
22 21 21 21 20 20 20 20 19 19 19 19 19 19 18 18 18 18 18 18 18 18 18 18 18 18 18 17 17 17 17 17 17 18 18 18 18 17 17 17 17 17 17
21 21 21 21 20 20 20 20 19 19 19 19 19 19 18 18 18 18 18 18 18 18 18 18 18 18 18 17 17 17 17 17 18 18 18 18 18 18 17 17 17 17 17
21 21 21 21 21 20 20 19 19 19 19 19 19 18 18 18 18 18 18 18 18 18 18 18 18 18 18 17 17 17 17 18 18 18 18 18 18 18 18 17 17 17 17
21 21 21 21 21 20 20 20 19 19 19 19 19 18 18 18 18 18 18 18 18 18 18 18 18 18 18 18 17 17 18 18 18 18 18 18 18 18 18 17 17 17 17
21 21 21 21 21 20 20 20 20 19 19 19 19 18 18 18 18 18 18 18 18 18 18 18 18 18 18 18 18 17 18 18 18 18 18 18 18 18 18 17 17 17 17
21 21 21 21 20 20 20 20 20 20 19 19 19 18 18 18 18 18 18 18 18 18 18 18 18 18 18 18 18 18 18 18 18 18 18 18 18 18 17 17 17 17 17
21 21 21 21 21 20 20 20 20 20 19 19 19 18 18 18 18 18 18 18 18 18 18 18 18 18 18 18 18 18 18 18 18 18 18 18 17 17 17 17 17 17 17
21 21 21 20 20 20 20 20 20 20 19 19 19 18 18 18 18 18 18 18 18 18 18 18 18 18 18 18 18 18 18 18 18 17 18 17 17 17 17 17 17 17 17
21 21 21 20 20 20 20 20 19 19 19 19 19 18 18 18 18 18 18 18 18 18 18 18 18 18 18 18 18 18 17 18 17 17 17 17 17 17 17 17 17 17 17
21 21 20 20 19 20 19 19 19 19 19 19 19 19 18 18 18 18 18 18 18 18 18 18 18 18 18 18 18 17 17 17 17 17 17 17 17 17 17 17 17 17 17
21 21 20 20 19 19 19 19 19 19 19 19 19 19 18 18 18 18 18 18 18 18 18 18 18 18 18 18 18 17 17 17 17 17 17 17 17 17 17 17 17 17 16
21 21 20 20 20 19 19 19 19 18 19 19 19 19 18 18 18 18 18 18 18 18 18 18 18 18 18 18 17 17 17 17 17 17 17 17 17 17 17 17 17 16 16
21 20 20 20 20 19 19 19 19 18 18 18 18 18 18 18 18 18 18 18 18 18 18 18 18 18 17 17 17 17 17 17 17 17 17 17 17 17 17 17 17 16 16
21 20 20 20 19 19 19 19 19 18 18 18 18 18 18 18 18 18 18 18 18 18 18 18 18 18 17 17 17 17 17 17 17 17 17 17 17 17 17 17 17 17 16
20 20 20 20 19 19 18 18 18 18 18 18 18 18 18 18 18 18 18 18 18 18 18 18 18 17 17 17 17 17 17 18 18 17 17 17 17 17 17 17 17 17 17
20 20 20 19 19 19 18 18 18 18 18 18 18 18 18 18 18 18 18 18 18 18 18 17 17 17 17 17 17 17 18 18 18 17 17 17 17 17 17 17 17 17 17
20 20 19 19 19 19 18 18 18 18 18 18 18 18 18 18 18 17 17 17 18 18 18 17 17 17 17 17 17 17 17 17 17 17 17 17 17 17 17 17 17 17 17
20 19 19 19 19 18 18 18 18 18 18 18 17 17 17 17 17 17 17 17 18 18 18 17 17 17 17 17 17 17 17 17 17 17 18 18 17 17 17 17 17 17 17
Wind_Speed
11 15 22 22 21 21 20 20 19 19 19 19 20 20 20 20 20 19 19 18 17 17 17 18 18 18 18 19 19 20 20 20 20 20 20 20 20 20 20 21 20 18 20
15 19 23 22 22 21 21 20 19 19 19 19 19 19 18 18 18 18 18 17 17 17 17 17 17 18 18 18 19 19 19 19 19 20 19 19 19 19 19 19 18 17 20
19 20 23 23 22 22 21 20 20 19 18 18 18 18 18 18 17 17 17 17 17 17 17 17 17 17 17 17 18 18 18 18 19 19 18 16 17 19 19 19 19 19 19
19 19 21 24 23 22 21 20 20 19 18 17 17 17 17 17 17 17 17 17 17 17 17 16 16 16 16 16 16 16 16 17 17 16 14 14 16 18 18 18 18 18 18
16 18 22 25 23 22 21 20 19 19 18 17 17 17 17 17 17 17 17 16 16 16 16 16 15 15 15 14 14 13 14 15 16 14 13 14 15 17 17 17 17 17 17
15 18 22 24 24 23 22 21 20 19 18 17 17 17 17 17 16 16 16 16 16 16 15 14 14 13 13 12 11 11 11 14 15 14 14 14 14 16 16 16 16 16 16
16 16 22 24 23 23 22 21 20 19 18 17 17 17 17 16 16 16 16 16 15 15 14 13 13 12 11 10 9 9 11 16 15 13 13 13 14 15 15 15 15 15 15
18 15 20 24 23 22 21 21 20 19 18 17 17 17 17 16 16 16 15 15 14 14 13 12 11 11 10 9 9 9 12 15 14 13 13 13 15 15 15 15 15 14 14
16 14 15 19 21 22 21 21 20 19 18 18 17 17 17 16 16 15 15 15 14 13 12 11 10 9 8 8 7 8 10 14 14 12 13 12 15 15 14 14 14 14 14
13 13 12 14 16 17 18 20 20 19 18 18 17 17 17 16 16 15 15 14 13 13 12 11 10 8 7 6 6 8 11 15 13 11 11 12 15 15 14 14 13 13 13
14 11 12 11 12 14 15 18 19 19 18 18 17 18 16 13 14 13 14 14 13 12 11 10 9 7 5 5 5 8 11 12 12 11 10 13 15 14 14 13 13 13 12
16 14 12 13 12 13 14 15 14 14 15 14 14 14 13 13 12 12 14 13 12 11 10 9 7 6 4 3 3 7 9 12 10 9 10 14 15 14 14 13 13 12 12
18 16 15 14 12 11 8 11 10 10 12 12 13 14 13 11 10 10 10 10 10 9 7 6 5 4 3 3 3 6 9 10 9 9 11 15 15 14 14 13 13 12 12
17 16 16 15 13 10 10 9 9 8 9 9 12 14 11 7 6 7 7 8 8 7 5 4 3 3 3 3 5 8 10 9 10 10 12 15 15 15 14 14 13 12 12
16 16 17 16 15 12 10 9 10 8 9 11 12 13 13 7 6 6 6 7 8 7 6 5 4 3 3 3 6 8 9 10 12 12 12 15 15 15 14 13 13 12 12
17 16 16 16 15 13 11 9 8 9 10 11 11 13 15 12 8 6 5 5 6 7 8 7 5 3 3 3 4 6 9 10 11 12 12 14 16 16 15 14 13 12 12
17 16 16 16 14 14 13 11 9 10 11 9 10 14 15 14 12 8 5 5 6 8 7 5 4 3 3 3 3 4 7 9 10 11 13 13 13 15 15 14 14 13 13
15 16 16 17 15 13 11 9 7 9 9 9 11 12 14 14 14 9 6 5 7 7 5 4 3 3 2 2 2 3 4 6 9 11 12 12 12 12 14 14 14 14 13
15 15 15 14 15 13 11 8 7 7 8 9 10 10 12 13 13 9 6 5 7 5 4 4 3 3 3 2 2 2 3 3 5 8 8 11 12 13 13 14 15 15 14
12 13 13 13 13 12 9 7 6 6 6 7 8 9 12 12 12 9 5 6 6 4 4 3 4 3 3 3 2 2 1 2 3 4 6 9 11 13 14 13 13 14 15
10 11 12 13 12 10 8 8 7 7 7 6 6 10 12 11 11 8 5 5 5 5 5 5 4 3 2 2 3 2 2 1 2 3 4 5 7 11 13 14 14 13 12
12 12 13 13 12 10 8 6 5 5 5 6 6 7 10 11 11 9 6 6 6 5 5 5 4 3 1 2 3 3 2 3 2 1 2 5 5 7 9 12 13 14 13
12 13 13 12 12 10 9 6 5 4 3 4 5 6 7 10 10 8 8 6 6 6 6 5 5 5 3 1 2 4 4 3 2 2 2 3 4 4 5 9 12 14 14
11 10 10 11 11 11 11 10 10 8 7 6 6 6 6 8 9 9 8 7 6 6 6 6 5 4 4 2 1 1 3 4 3 1 3 2 3 5 5 6 8 12 14
10 10 10 10 10 10 11 12 11 8 6 5 6 7 6 5 7 8 8 7 6 6 6 6 5 5 4 4 3 2 1 1 2 3 2 3 2 3 5 5 6 10 14
8 9 9 10 9 10 11 11 11 11 10 9 8 8 6 5 5 7 8 7 6 6 6 6 6 6 4 4 3 3 3 3 3 3 3 3 3 3 3 4 5 7 11
Wind_Direction
148 152 146 140 134 129 124 119 115 112 110 109 108 107 107 108 109 111 113 112 112 111 111 111 111 110 110 111 111 110 110 110 109 109 109 110 111 111 110 109 107 107 109
148 151 146 141 138 133 129 125 122 118 116 114 113 112 112 112 112 113 114 115 114 113 113 113 112 112 112 113 114 113 112 111 110 110 108 109 111 111 111 110 109 112 111
143 147 145 143 140 136 133 131 128 125 122 120 118 117 117 117 116 116 116 117 116 115 115 115 115 115 114 115 116 116 115 113 110 107 105 104 109 111 112 112 112 113 112
142 144 145 143 141 139 137 135 133 131 129 126 124 123 122 122 121 120 120 119 119 119 118 118 118 117 116 116 117 119 119 116 114 109 105 106 111 114 114 114 114 114 113
139 142 146 145 143 142 141 139 138 137 135 132 130 129 127 126 125 124 123 122 122 122 121 121 121 120 119 118 118 120 123 122 119 114 108 107 112 118 118 118 117 117 116
138 142 147 146 145 145 144 144 143 141 139 137 135 133 132 130 129 127 126 126 125 125 125 125 124 122 119 117 115 116 121 125 119 116 115 114 118 122 122 121 120 120 120
140 144 148 148 148 148 148 147 146 144 143 141 139 137 135 134 133 131 129 130 129 130 130 129 127 124 121 117 112 109 117 126 122 120 120 120 123 125 126 126 125 124 124
144 145 149 150 151 151 150 150 149 148 147 145 143 141 139 137 136 134 134 134 134 133 133 133 130 126 120 113 106 103 115 131 130 132 130 130 131 130 130 130 130 129 129
145 146 148 152 154 154 153 153 152 151 150 149 147 144 142 141 139 139 138 138 138 138 137 137 134 130 122 113 106 106 119 132 131 136 139 138 138 136 136 135 135 135 133
147 149 149 151 153 154 156 157 156 155 154 153 152 150 148 146 145 144 143 144 145 145 145 144 141 136 127 116 108 106 117 128 131 135 141 148 146 143 141 141 141 140 139
154 156 154 150 152 153 156 161 159 159 159 158 157 156 152 148 147 148 150 152 153 153 153 153 150 144 133 121 116 113 117 133 135 139 149 155 154 150 148 147 147 146 145
163 164 162 158 158 158 162 159 161 161 161 159 159 156 152 152 155 157 161 160 161 161 161 164 162 154 146 133 120 116 125 136 138 147 159 162 160 157 155 154 154 153 152
167 167 166 165 165 167 160 158 161 159 161 163 164 161 161 161 164 162 163 165 166 167 168 174 174 175 174 164 143 131 139 143 149 161 171 168 166 164 163 162 162 162 161
168 173 169 169 171 173 161 164 166 165 168 172 176 173 167 162 160 164 168 171 171 175 179 181 188 209 206 189 161 148 151 154 159 166 177 175 173 172 171 170 170 170 169
172 175 174 173 174 173 165 172 173 172 177 180 180 181 174 166 167 169 176 180 184 183 187 193 200 195 185 170 159 153 162 163 164 172 180 182 179 179 178 177 178 179 178
177 179 175 174 176 172 171 176 174 175 177 178 180 181 176 171 169 169 174 183 189 190 190 189 187 174 167 151 147 153 159 164 172 178 181 186 185 184 183 182 183 184 185
176 175 176 176 175 174 174 178 176 176 175 176 178 177 174 171 171 169 173 181 188 186 178 169 164 157 154 142 143 150 158 167 174 179 183 186 189 192 190 189 189 191 192
169 170 175 178 175 172 172 171 167 170 168 172 172 173 172 171 171 168 172 182 182 171 160 153 147 145 148 139 150 159 160 170 175 183 187 188 189 195 199 198 197 197 199
171 170 172 172 172 170 166 160 153 157 163 168 166 167 170 168 169 167 170 177 170 156 156 168 146 147 148 157 169 162 163 168 178 183 188 193 196 198 200 205 206 204 206
170 167 168 168 166 161 155 147 144 152 163 163 164 168 169 171 169 162 164 168 157 147 154 153 146 144 147 161 143 126 155 180 183 183 190 195 202 205 205 206 209 211 214
165 166 167 165 165 159 158 161 160 169 171 167 170 173 173 173 167 159 165 163 155 158 165 157 142 137 133 130 93 47 3 354 199 199 190 189 202 208 205 207 208 209 214
172 170 166 166 164 164 168 166 160 159 169 168 171 177 179 175 169 171 166 170 164 156 155 156 142 133 133 138 130 106 35 351 325 232 207 199 202 198 200 206 206 209 212
171 172 171 166 165 166 161 147 143 135 134 158 174 180 184 177 171 168 172 168 166 163 167 168 155 144 155 165 146 142 147 209 278 313 258 214 195 192 201 203 208 212 215
177 170 163 164 168 170 165 166 169 173 177 183 180 178 178 177 172 172 172 170 167 164 165 173 163 150 144 158 157 177 168 157 152 254 311 274 222 206 205 204 207 213 216
177 170 169 167 171 173 174 176 177 178 177 166 167 170 176 177 174 176 173 168 165 162 167 168 155 154 152 157 164 162 128 119 130 147 221 277 283 244 219 211 203 208 211
179 172 168 172 178 179 178 180 180 176 171 170 175 179 181 178 180 177 174 170 169 167 167 171 168 164 164 158 156 157 157 162 183 166 191 225 241 263 243 225 207 207 210
Height
1516 1519 1521 1523 1525 1526 1528 1529 1530 1531 1533 1534 1535 1536 1537 1538 1540 1541 1542 1542 1543 1544 1545 1546 1546 1547 1548 1548 1549 1550 1550 1551 1551 1552 1552 1553 1554 1554 1555 1555 1556 1556 1558
1514 1518 1522 1524 1525 1527 1528 1530 1531 1533 1534 1535 1536 1537 1539 1540 1541 1542 1543 1544 1545 1545 1546 1547 1548 1549 1550 1550 1551 1552 1553 1553 1554 1554 1555 1555 1556 1557 1557 1558 1558 1559 1560
1514 1518 1522 1524 1526 1528 1529 1531 1532 1534 1535 1536 1538 1539 1540 1541 1542 1543 1544 1545 1546 1547 1548 1549 1550 1551 1552 1552 1553 1554 1555 1556 1556 1557 1557 1558 1558 1559 1559 1560 1561 1561 1562
1514 1518 1522 1524 1527 1528 1530 1532 1533 1535 1536 1537 1539 1540 1541 1542 1543 1545 1546 1546 1547 1549 1549 1550 1552 1553 1554 1554 1555 1556 1557 1558 1559 1559 1560 1560 1561 1561 1562 1562 1563 1564 1564
1516 1519 1522 1525 1527 1529 1531 1532 1534 1535 1537 1538 1540 1541 1542 1543 1545 1546 1547 1548 1549 1550 1551 1552 1553 1554 1556 1557 1558 1558 1559 1560 1561 1561 1562 1562 1563 1563 1564 1564 1565 1566 1566
1516 1520 1523 1525 1527 1529 1531 1533 1535 1536 1538 1539 1541 1542 1543 1545 1546 1547 1548 1549 1550 1551 1553 1554 1555 1556 1558 1559 1560 1560 1561 1561 1562 1563 1564 1564 1565 1565 1566 1566 1567 1568 1568
1516 1520 1523 1525 1528 1530 1531 1533 1535 1537 1538 1540 1541 1543 1544 1546 1547 1548 1549 1551 1552 1553 1554 1556 1557 1558 1560 1561 1562 1562 1563 1563 1564 1565 1565 1566 1567 1567 1568 1568 1569 1570 1570
1516 1519 1523 1525 1528 1530 1532 1534 1535 1537 1539 1541 1542 1544 1545 1547 1548 1549 1550 1552 1553 1554 1556 1557 1559 1560 1562 1563 1564 1564 1564 1565 1566 1566 1567 1568 1568 1569 1569 1570 1571 1571 1572
1517 1519 1522 1525 1528 1530 1532 1534 1536 1538 1539 1541 1543 1544 1546 1547 1549 1550 1552 1553 1554 1556 1557 1559 1560 1562 1563 1564 1565 1566 1566 1566 1567 1568 1568 1569 1569 1570 1571 1571 1572 1573 1573
1517 1519 1522 1524 1527 1529 1532 1534 1536 1538 1540 1542 1543 1545 1547 1548 1550 1551 1553 1554 1556 1557 1559 1560 1562 1563 1564 1565 1566 1567 1567 1568 1569 1569 1570 1570 1571 1571 1572 1572 1573 1574 1575
1517 1519 1521 1524 1526 1529 1531 1533 1536 1538 1540 1542 1544 1545 1547 1549 1550 1552 1554 1555 1557 1558 1560 1561 1563 1564 1565 1567 1568 1568 1568 1569 1570 1570 1571 1571 1572 1572 1573 1574 1574 1575 1576
1514 1517 1520 1522 1525 1528 1530 1533 1535 1537 1540 1542 1543 1545 1547 1549 1551 1553 1554 1556 1557 1559 1560 1562 1564 1565 1566 1567 1568 1569 1570 1570 1571 1572 1572 1572 1573 1573 1574 1575 1575 1576 1577
1512 1515 1518 1521 1524 1526 1529 1531 1534 1536 1539 1541 1543 1545 1547 1549 1551 1553 1554 1556 1558 1559 1561 1563 1564 1566 1567 1568 1569 1569 1570 1571 1571 1572 1573 1573 1574 1574 1575 1575 1576 1577 1577
1510 1513 1516 1519 1522 1525 1528 1530 1533 1535 1538 1540 1543 1545 1547 1549 1551 1553 1555 1556 1558 1560 1561 1563 1564 1566 1567 1568 1569 1569 1570 1571 1572 1572 1573 1574 1574 1575 1575 1576 1576 1577 1578
1508 1511 1514 1517 1520 1523 1526 1529 1531 1534 1537 1540 1542 1544 1546 1548 1550 1552 1554 1556 1558 1560 1561 1563 1564 1566 1567 1567 1568 1569 1570 1571 1572 1572 1573 1574 1574 1575 1576 1576 1577 1577 1578
1505 1509 1512 1515 1518 1521 1524 1527 1529 1532 1535 1539 1541 1543 1546 1548 1550 1552 1554 1556 1558 1559 1561 1563 1564 1565 1566 1567 1568 1569 1570 1571 1572 1572 1573 1574 1575 1575 1576 1576 1577 1577 1578
1502 1506 1509 1512 1515 1519 1522 1525 1528 1531 1534 1537 1540 1543 1545 1547 1550 1552 1553 1555 1557 1559 1560 1562 1564 1565 1566 1567 1568 1569 1570 1571 1571 1572 1573 1574 1574 1575 1576 1576 1577 1577 1577
1499 1502 1506 1509 1513 1517 1520 1523 1525 1529 1532 1535 1538 1541 1544 1546 1549 1551 1552 1554 1556 1558 1559 1561 1563 1564 1565 1566 1567 1568 1569 1570 1571 1572 1573 1573 1574 1574 1575 1576 1576 1576 1577
1496 1499 1502 1506 1510 1514 1518 1521 1524 1527 1530 1533 1536 1539 1542 1545 1547 1549 1551 1553 1555 1556 1558 1560 1561 1563 1564 1565 1566 1567 1568 1569 1570 1571 1572 1573 1573 1574 1574 1575 1575 1576 1576
1494 1497 1500 1504 1507 1511 1515 1519 1522 1525 1529 1532 1535 1537 1540 1543 1545 1547 1550 1552 1553 1555 1557 1558 1560 1562 1563 1564 1565 1567 1567 1568 1569 1570 1571 1572 1572 1573 1574 1574 1575 1575 1575
1492 1495 1497 1500 1504 1508 1512 1515 1518 1522 1525 1529 1532 1535 1538 1540 1543 1545 1548 1550 1552 1553 1555 1557 1559 1560 1562 1563 1564 1566 1567 1567 1568 1569 1569 1570 1571 1572 1572 1573 1574 1574 1574
1488 1491 1495 1498 1501 1505 1509 1512 1516 1520 1523 1526 1530 1533 1535 1538 1540 1543 1546 1548 1550 1552 1554 1555 1557 1559 1560 1562 1563 1564 1565 1567 1566 1567 1568 1569 1569 1570 1571 1571 1572 1573 1573
1486 1488 1491 1494 1498 1502 1506 1510 1514 1518 1521 1524 1526 1530 1532 1535 1538 1540 1543 1545 1548 1550 1551 1553 1555 1557 1558 1560 1561 1563 1563 1564 1565 1566 1566 1567 1568 1568 1569 1570 1571 1571 1572
1484 1487 1489 1493 1496 1500 1503 1506 1509 1512 1515 1518 1522 1526 1530 1533 1535 1538 1540 1543 1545 1547 1549 1551 1553 1555 1557 1558 1560 1561 1562 1562 1563 1564 1565 1565 1566 1567 1567 1568 1569 1569 1570
1484 1486 1488 1491 1494 1497 1500 1503 1506 1509 1512 1516 1520 1523 1527 1530 1532 1535 1538 1540 1543 1545 1547 1549 1551 1553 1555 1557 1558 1559 1560 1561 1561 1562 1562 1564 1564 1565 1565 1566 1567 1567 1568
1483 1485 1487 1489 1492 1494 1496 1500 1503 1506 1509 1513 1516 1520 1523 1526 1529 1532 1536 1538 1540 1543 1545 1547 1549 1551 1553 1555 1556 1557 1558 1559 1559 1560 1561 1561 1562 1563 1563 1564 1565 1565 1566